This demonstration page uses our WeatherBlox Daily Observations layout. Learn more.

Left ArrowRight Arrow

Hourly Observations for January 24, 2022

Temp ( °F °C ) Dew Point ( °F °C ) Humidity (%) Winds ( mph kmh ) Pressure ( in mb ) Visibility ( mi km ) Precip ( " mm )
12:53 am 00:53 Mostly Clear 36 2.2 27 -2.8 70 70 SSE 10 17 30.00 1016 10 16 0.00 0.00
1:53 am 01:53 Cloudy 36 2.2 28 -2.2 73 73 S 3 6 29.97 1015 10 16 0.00 0.00
2:53 am 02:53 Cloudy 36 2.2 28 -2.2 73 73 SSE 3 6 29.95 1014 10 16 0.00 0.00
3:53 am 03:53 Mostly Cloudy 36 2.2 28 -2.2 73 73 Calm 29.93 1014 10 16 0.00 0.00
4:53 am 04:53 Partly Cloudy 32 0 25 -3.9 75 75 Calm 29.92 1013 10 16 0.00 0.00
5:53 am 05:53 Clear 31 -0.6 25 -3.9 79 79 S 5 7 29.90 1012 10 16 0.00 0.00
6:53 am 06:53 Clear 29 -1.7 24 -4.4 82 82 Calm 29.91 1013 10 16 0.00 0.00
7:53 am 07:53 Sunny 27 -2.8 21 -6.1 78 78 Calm 29.91 1013 10 16 0.00 0.00
8:53 am 08:53 Sunny 33 0.6 23 -5 66 66 SW 3 6 29.90 1012 10 16 0.00 0.00
9:53 am 09:53 Sunny 44 6.7 26 -3.3 49 49 WSW 8 13 29.88 1012 10 16 0.00 0.00
10:53 am 10:53 Sunny 49 9.4 27 -2.8 43 43 W 14 22 29.88 1012 10 16 0.00 0.00
11:53 am 11:53 Sunny 54 12.2 28 -2.2 37 37 W 9 15 29.85 1011 10 16 0.00 0.00
12:53 pm 12:53 Sunny 59 15 29 -1.7 32 32 WNW 10 17 29.80 1009 10 16 0.00 0.00
1:53 pm 13:53 Sunny 61 16.1 27 -2.8 27 27 NW 10 17 29.77 1008 10 16 0.00 0.00
2:53 pm 14:53 Sunny 63 17.2 24 -4.4 23 23 W 13 20 29.75 1007 10 16 0.00 0.00
3:53 pm 15:53 Sunny 64 17.8 23 -5 21 21 W 6 9 29.75 1007 10 16 0.00 0.00
4:53 pm 16:53 Sunny 64 17.8 22 -5.6 20 20 W 8 13 29.76 1008 10 16 0.00 0.00
5:53 pm 17:53 Sunny 62 16.7 20 -6.7 20 20 WNW 7 11 29.78 1008 10 16 0.00 0.00
6:53 pm 18:53 Clear 55 12.8 18 -7.8 23 23 W 7 11 29.82 1010 10 16 0.00 0.00
7:53 pm 19:53 Clear 50 10 18 -7.8 28 28 W 6 9 29.85 1011 10 16 0.00 0.00
8:53 pm 20:53 Clear 49 9.4 17 -8.3 28 28 Calm 29.85 1011 10 16 0.00 0.00
9:53 pm 21:53 Clear 42 5.6 15 -9.4 33 33 NNW 6 9 29.86 1011 10 16 0.00 0.00
10:53 pm 22:53 Clear 39 3.9 14 -10 36 36 N 8 13 29.86 1011 10 16 0.00 0.00
11:53 pm 23:53 Clear 39 3.9 16 -8.9 39 39 WNW 6 9 29.86 1011 10 16 0.00 0.00

Powered by AerisWeather